Regional Weather Roundup
Issued by NWS

Home | Current Version | Previous Version | Text Only | Print | Product List | Glossary Off
Versions: 1 2 3 4 5 6 7 8 9 10 11 12 13 14 15 16 17 18 19 20 21 22 23 24 25 26 27 28 29 30 31 32 33 34 35 36 37 38 39 40 41 42 43 44 45 46 47 48 49 50

463
ASUS43 KTOP 211659
RWRKS

WEATHER ROUNDUP FOR KANSAS
NATIONAL WEATHER SERVICE GOODLAND KS
1100 AM CST SUN JAN 21 2018

NOTE:  "FAIR" INDICATES FEW OR NO CLOUDS BELOW 12,000 FEET WITH NO
SIGNIFICANT WEATHER AND/OR OBSTRUCTIONS TO VISIBILITY.

KSZ001>006-013>018-027>032-041>047-211800-
NORTHWEST KANSAS

CITY           SKY/WX    TMP DP  RH WIND       PRES   REMARKS
GOODLAND       FRZ RAIN  30  30 100 N17       29.72S FOG     WCI  18
HAYS           CLOUDY    39  38  96 N8        29.73R FOG
HILL CITY      FOG       35  35 100 N10       29.74R VSB 3/4 WCI  27
RUSSELL        FOG       42  42 100 N7        29.70R VSB 1
$$

KSZ061>065-074>080-084>089-211800-
SOUTHWEST KANSAS

CITY           SKY/WX    TMP DP  RH WIND       PRES   REMARKS
DODGE CITY     FOG       35  34  96 NW12      29.72F VSB 1   WCI  27
GARDEN CITY    CLOUDY    33  32  96 N10       29.72F FOG     WCI  25
GREAT BEND     CLOUDY    39  38  96 N8        29.71F FOG
LIBERAL        CLOUDY    37  32  82 N14       29.70F WCI  28
$$

KSZ066>073-081>083-090>101-211800-
SOUTHEAST KANSAS

CITY           SKY/WX    TMP DP  RH WIND       PRES   REMARKS
COFFEYVILLE    CLOUDY    65  53  65 S22G36    29.79F
HUTCHINSON     SUNNY     45  37  73 S9        29.71F
MEDICINE LODGE   N/A     56  32  40 W6        29.73S
NEWTON         CLOUDY    52  47  83 S24       29.72S
PARSONS        CLOUDY    63  54  72 S18G29    29.80F
WICHITA INTL   PTSUNNY   54  49  83 S18       29.73S
WICHITA JABRA  CLOUDY    53  49  86 S18G30    29.74R
WICHITA MCCONL CLOUDY    54  48  81 SW20G29   29.74S
WINFIELD       CLOUDY    57  52  83 S18G26    29.77S
$$

KSZ007>012-019>026-033>040-048>060-102>105-211800-
NORTHEAST KANSAS

CITY           SKY/WX    TMP DP  RH WIND       PRES   REMARKS
CONCORDIA      FOG       41  41 100 N5        29.70S VSB 1/4
EMPORIA        CLOUDY    56  48  74 S21G31    29.74S
LAWRENCE       CLOUDY    57  51  80 S10       29.77S
MANHATTAN      CLOUDY    55  48  77 SW14G24   29.72R
OLATHE IND     CLOUDY    58  52  80 S14       29.78S
OLATHE EXE     CLOUDY    57  52  83 S14       29.78S
SALINA         CLOUDY    41  41 100 SW5       29.71F FOG
TOPEKA BILLARD CLOUDY    56  51  84 S10       29.75F
TOPEKA FORBES  CLOUDY    57  51  80 S14       29.75S
$$




USA.gov is the U.S. government's official web portal to all federal, state and local government web resources and services.